GFSSW_850_rhum_132.txt.gz
RH
91 96 96 94 95 97 94 96 93 89 86 89 97 97 95 90 83 85 69 13 55 53 62 77 81 61 57 53 52 42 40 35 31 30 24 27 27 25 23 22 26 31 29 37 44
76 83 89 94 92 94 94 93 98 98 96 97 86 98 93 85 97 71 30 26 10 27 72 91 82 61 50 47 52 40 38 32 24 24 26 22 24 24 25 24 26 35 36 55 42
90 96 92 94 93 92 90 86 90 91 90 89 92 98 94 89 84 48 92 85 47 94 94 88 82 83 48 42 43 42 35 28 28 31 26 27 26 26 24 25 21 25 47 70 43
91 90 93 95 92 94 71 58 87 88 84 82 91 90 98 93 46 80 94 93 97 100 98 91 96 93 53 43 38 42 32 30 28 34 34 29 28 22 24 23 21 22 40 64 38
86 87 94 96 96 92 72 58 94 87 55 29 75 90 98 90 72 44 31 75 83 91 94 80 92 90 63 37 37 38 33 30 32 34 33 34 32 29 26 24 26 29 48 55 49
92 89 89 89 84 85 71 62 89 73 39 28 32 90 89 93 58 54 56 37 58 75 88 96 88 74 59 45 37 34 36 32 33 34 33 32 31 31 28 24 26 35 44 48 50
92 93 85 82 79 78 68 64 88 48 38 35 30 89 85 76 60 49 56 60 51 58 64 89 90 82 64 52 42 38 42 36 32 30 33 33 36 32 31 29 24 31 34 41 48
99 92 89 86 77 77 72 58 49 48 38 33 53 86 86 75 78 78 68 60 60 56 60 72 84 94 72 49 38 41 42 52 34 31 30 34 34 24 26 28 26 22 29 40 46
99 99 97 84 83 76 67 50 47 42 32 54 90 84 64 65 72 70 80 78 78 80 62 53 94 96 72 69 55 40 48 48 40 27 30 33 34 22 23 28 26 24 21 34 42
100 99 100 82 81 78 57 48 39 38 54 69 97 95 76 56 69 75 70 70 61 81 65 74 84 89 94 79 92 62 45 36 40 32 32 30 32 18 18 24 26 23 21 21 32
100 99 100 90 87 78 58 53 58 55 55 41 36 68 50 42 49 48 50 54 56 65 63 53 91 87 73 77 57 44 38 39 32 29 32 33 27 24 18 22 22 20 22 21 21
100 100 100 97 95 74 65 72 82 60 76 50 56 58 54 55 60 54 51 47 39 58 50 56 92 62 56 55 70 55 48 43 35 29 34 31 31 22 19 18 19 19 20 21 21
100 100 99 98 99 77 68 62 58 65 65 38 48 51 54 64 62 59 56 46 41 37 50 59 48 48 59 61 73 66 58 56 41 34 31 33 37 29 23 22 22 20 18 18 20
100 100 99 100 99 88 70 58 46 50 62 32 48 56 61 65 62 47 54 55 41 42 37 68 41 44 60 70 68 85 52 47 45 41 52 35 43 28 24 24 22 21 21 19 18
100 100 99 99 97 84 76 49 42 68 68 25 47 61 46 28 32 38 52 48 56 48 40 55 51 46 69 60 61 73 53 54 53 56 45 45 46 30 21 26 22 19 19 20 19
100 99 100 100 100 99 69 42 48 56 62 32 37 32 26 23 26 41 46 52 49 53 44 46 58 52 38 53 56 58 67 62 59 73 84 54 47 38 29 25 21 18 18 19 19
100 98 100 100 100 96 76 46 67 67 26 28 36 32 32 28 28 47 39 36 57 78 68 40 40 51 53 67 58 73 84 98 98 98 87 50 58 44 26 22 21 20 18 17 17
100 100 100 100 98 97 73 73 89 44 30 26 36 33 38 45 42 49 35 33 33 79 88 75 48 50 62 55 76 68 90 77 84 79 54 38 61 42 29 25 26 22 20 18 18
100 100 100 100 99 99 85 91 79 42 30 40 35 45 45 56 48 45 29 32 52 81 93 91 61 48 47 44 41 74 90 72 80 73 42 42 37 26 28 28 26 24 21 20 20
98 100 100 100 99 99 91 76 67 36 39 40 56 46 65 46 57 58 52 34 42 60 99 89 91 41 61 52 47 48 53 90 96 96 85 46 37 32 30 28 28 27 27 25 23
99 99 100 100 100 99 89 81 67 45 42 47 51 58 53 66 66 65 68 47 40 62 81 98 92 53 63 98 81 73 68 70 57 68 76 58 37 24 24 24 23 22 24 25 25
99 98 100 99 98 88 85 79 55 47 47 51 54 55 56 56 74 70 69 61 55 84 83 71 94 82 60 75 97 50 49 67 86 100 59 40 31 23 19 20 21 21 20 25 21
99 98 99 98 93 90 94 93 77 55 49 51 57 58 54 68 87 74 67 52 69 77 99 89 82 80 54 80 95 99 49 42 43 32 50 46 33 23 25 24 24 23 26 22 23
97 94 99 99 98 75 92 91 86 58 59 52 53 59 76 77 57 85 87 44 52 44 57 84 88 83 82 95 97 96 95 78 57 58 45 38 30 23 23 25 24 26 26 26 24
99 95 73 94 96 81 92 92 73 76 62 62 60 63 63 69 61 68 52 50 43 57 67 85 86 83 86 67 92 94 96 96 96 58 48 35 35 26 21 22 24 26 27 26 27
97 97 96 95 75 95 91 86 81 75 62 54 61 45 41 60 54 59 59 60 62 52 69 75 67 58 58 44 63 76 63 85 93 98 41 31 29 23 22 22 23 23 26 26 24
99 98 97 88 91 94 83 67 81 72 57 50 44 45 49 46 44 51 57 54 52 68 74 69 63 60 57 51 51 54 41 44 75 82 76 46 32 24 27 27 23 23 27 25 22

GFSSW_850_rhum_135.txt.gz
RH
60 59 57 49 41 40 32 55 84 87 90 92 94 93 93 94 88 71 58 54 53 64 71 95 91 68 58 49 43 31 28 31 30 31 24 19 19 16 14 16 18 19 21 26 45
69 68 65 58 55 51 50 59 62 67 92 92 91 92 90 96 91 56 77 83 88 65 86 79 74 66 51 48 44 41 42 35 23 22 22 20 18 17 18 19 20 20 34 42 57
78 77 82 76 66 66 65 71 58 56 92 93 92 90 91 81 70 60 88 88 78 86 73 69 62 62 71 46 41 40 49 27 24 21 21 22 20 20 21 22 18 21 35 53 57
89 87 77 72 62 74 78 74 56 49 91 92 92 91 90 79 48 77 81 61 90 84 80 74 59 57 68 68 43 41 34 34 28 23 25 27 22 20 22 22 20 21 28 51 57
99 97 94 82 76 89 74 72 55 49 86 76 79 91 86 66 55 38 60 57 61 74 79 76 64 56 64 58 49 39 33 32 29 27 26 27 26 21 22 22 23 23 31 48 51
100 99 99 95 87 89 81 74 53 46 57 46 92 92 81 64 46 50 51 61 57 60 68 72 83 55 54 57 53 38 34 31 30 28 26 26 27 24 25 27 24 23 33 42 46
100 100 100 100 89 87 77 74 56 46 35 46 92 90 74 61 49 52 56 55 56 54 51 61 71 93 65 57 49 48 44 32 30 31 28 28 31 28 22 26 24 23 26 36 41
100 100 100 100 100 98 88 74 57 43 34 41 91 85 72 56 57 58 58 57 52 46 44 51 60 74 94 66 49 41 49 57 34 30 30 28 39 25 22 24 26 24 23 29 36
100 100 100 100 100 100 89 91 60 45 33 40 82 78 59 50 52 52 60 58 60 54 55 51 48 62 76 75 69 54 52 51 44 28 31 31 36 24 21 21 25 25 22 22 30
100 100 100 100 100 100 84 80 54 44 48 61 64 85 71 51 53 62 60 60 56 49 45 49 49 74 79 82 87 55 50 34 35 31 30 34 33 25 20 18 21 24 23 20 26
100 100 100 100 100 100 86 78 57 47 54 38 40 63 41 43 31 28 27 41 43 43 48 37 55 88 67 67 56 41 38 37 28 24 31 34 32 28 21 18 19 23 24 22 20
100 99 100 100 100 100 95 91 65 59 52 45 42 38 37 40 46 43 48 29 24 28 30 44 48 37 44 44 63 56 50 36 27 24 29 33 33 28 23 20 15 18 23 22 20
98 99 100 100 100 100 98 97 89 76 56 34 33 39 45 48 47 46 46 43 38 33 26 30 34 28 34 44 54 64 63 50 49 29 37 40 37 30 25 20 17 15 18 22 21
96 99 100 100 100 100 99 99 56 59 65 35 37 48 54 55 51 49 44 47 42 43 32 26 20 29 31 40 47 69 54 53 62 62 78 47 69 35 27 24 20 17 15 16 20
98 100 100 100 98 100 99 96 47 83 91 23 40 51 35 33 23 30 34 40 36 36 37 46 27 27 36 35 30 64 50 52 56 82 60 46 53 36 26 29 24 19 18 17 16
100 100 100 100 100 99 98 74 68 79 88 29 42 48 27 21 19 17 19 30 32 36 35 37 33 30 35 37 29 29 58 59 68 64 95 67 60 40 29 25 22 19 18 18 17
100 100 100 100 98 99 96 81 89 90 29 26 31 26 26 22 19 19 30 36 32 43 48 35 35 34 28 62 41 35 64 97 97 97 92 50 53 41 24 20 17 18 17 17 17
100 100 100 98 100 98 91 91 93 62 49 24 25 27 28 26 26 34 33 29 21 24 44 63 51 26 28 43 68 37 85 83 91 73 81 54 69 41 26 22 19 17 17 16 16
99 100 100 100 100 98 95 94 79 67 44 30 29 32 32 37 50 42 34 27 25 41 74 78 48 34 27 33 53 59 64 83 97 84 50 35 34 28 25 25 23 23 19 18 16
97 100 100 100 99 99 96 85 67 59 43 36 46 34 51 37 45 58 49 25 26 37 84 72 84 34 30 39 41 53 41 94 98 96 88 35 36 35 25 29 26 27 24 22 20
99 98 99 99 99 98 92 76 65 76 59 44 41 41 41 47 50 60 61 42 40 48 68 97 82 42 41 56 52 60 70 63 98 82 92 58 39 23 22 24 27 26 25 23 21
98 99 99 99 100 96 84 76 71 77 55 46 46 47 42 36 55 59 57 46 46 48 57 56 97 72 47 36 58 74 97 93 91 95 70 90 31 16 17 22 24 25 25 25 24
98 98 99 99 94 92 94 85 71 77 54 50 47 42 37 49 74 64 56 38 54 48 76 62 85 85 50 61 74 93 75 83 79 61 92 76 39 20 19 19 24 24 23 23 25
98 96 99 99 96 87 93 82 90 79 64 56 52 41 47 55 54 84 60 46 39 38 43 61 75 87 90 95 95 90 85 91 98 72 65 58 36 24 21 23 24 26 25 23 26
100 97 70 96 95 90 95 90 88 88 61 52 52 48 54 88 52 46 38 49 41 36 53 68 66 52 51 42 50 85 92 92 96 94 98 59 54 20 19 22 23 25 26 26 27
97 98 99 96 80 90 94 88 86 84 89 56 56 44 46 66 46 50 40 44 56 48 67 74 71 50 44 30 42 54 48 82 88 80 75 70 45 19 16 23 21 24 28 26 28
100 100 98 97 96 95 80 69 89 89 82 52 42 45 44 37 31 31 36 40 41 60 74 71 65 59 50 30 36 45 51 44 77 70 67 74 41 17 17 19 20 23 25 26 24

GFSSW_850_rhum_138.txt.gz
RH
74 73 74 74 70 63 60 52 46 65 92 94 98 96 92 91 45 32 42 38 49 56 62 69 93 91 64 57 53 49 54 46 36 32 28 22 23 18 16 13 13 14 17 28 45
80 82 85 85 82 77 70 65 58 46 66 94 94 92 95 89 43 55 26 96 83 82 88 67 74 84 79 56 51 52 56 48 30 24 25 23 23 19 19 14 15 16 28 34 51
88 93 96 97 90 87 82 72 67 66 87 94 95 93 89 68 64 50 84 82 79 73 79 72 67 71 72 62 50 48 59 43 34 28 27 24 24 20 19 24 18 18 38 42 53
88 93 98 98 95 91 92 83 75 68 86 95 93 94 86 90 52 74 86 73 65 77 79 69 64 64 63 66 60 53 43 42 40 37 35 28 24 27 22 21 20 18 28 37 52
99 99 100 100 99 98 97 94 83 73 65 68 95 93 92 79 61 36 40 41 54 63 71 69 66 60 58 51 56 65 53 38 36 35 34 32 29 30 28 20 20 22 31 38 50
99 100 100 100 100 100 100 98 90 79 69 55 91 91 93 77 46 46 46 49 55 52 55 60 74 69 72 49 49 49 55 48 36 33 32 32 29 27 28 25 22 23 26 43 50
100 100 100 100 100 100 100 100 99 93 64 64 93 95 87 77 42 42 48 51 51 50 51 54 53 62 80 76 46 44 55 50 45 34 34 30 36 33 26 26 23 26 31 47 52
97 97 100 100 100 100 100 100 100 98 58 51 94 96 84 45 53 55 51 52 53 52 48 44 44 60 63 77 66 58 53 74 49 48 35 34 49 33 27 26 25 24 25 30 44
98 99 98 100 99 100 100 100 99 95 60 56 85 84 70 55 52 49 48 55 51 53 50 48 42 51 63 85 84 72 78 67 56 39 41 35 46 34 28 26 25 22 24 23 33
97 97 98 100 99 100 100 100 100 85 67 60 72 69 68 55 47 44 48 56 53 48 44 43 48 61 77 88 86 74 75 62 54 40 40 40 39 34 28 25 25 22 25 26 26
100 93 99 98 92 100 100 100 89 79 63 50 53 62 50 52 37 35 29 28 31 45 46 37 59 75 66 73 67 56 55 49 38 35 36 41 39 34 29 27 25 23 21 26 25
99 93 97 93 99 100 100 97 97 84 84 59 46 44 44 40 33 33 43 37 24 30 27 33 51 42 39 40 57 65 70 68 54 40 33 33 32 32 30 28 26 23 21 23 25
87 88 92 99 100 100 100 99 99 97 93 59 38 33 32 42 38 41 43 41 35 37 29 31 32 24 31 34 39 50 72 69 72 50 41 34 38 34 32 27 26 24 19 20 24
85 90 96 100 100 100 100 99 98 96 92 50 31 41 47 51 47 45 45 44 42 45 38 38 28 25 24 26 34 50 37 47 52 64 79 51 79 52 42 36 29 26 21 18 24
90 95 99 100 99 100 98 99 96 98 96 28 39 46 43 41 26 29 33 31 44 40 32 40 35 38 42 25 23 38 33 40 47 62 67 64 83 80 44 44 30 28 22 19 18
91 100 97 100 100 100 100 99 96 92 94 29 45 50 44 24 21 19 17 29 25 28 34 37 28 30 31 30 32 28 31 40 49 63 96 74 78 72 49 39 32 25 24 19 16
92 100 100 100 98 99 98 98 96 95 39 49 31 32 26 25 21 20 24 28 37 54 50 35 28 24 27 37 32 41 67 85 85 91 95 69 80 64 38 29 26 25 22 20 18
98 100 100 98 98 99 98 98 96 80 66 57 33 27 31 26 27 30 34 39 27 26 42 51 57 29 23 29 56 47 59 95 83 81 65 44 79 65 48 39 22 22 22 21 19
98 100 100 100 100 100 98 96 94 72 89 57 36 38 34 32 46 43 42 35 30 33 62 85 60 33 34 29 43 64 60 56 71 64 90 86 69 48 33 34 29 24 22 20 20
98 99 100 100 99 99 98 93 84 85 90 58 56 38 47 38 48 62 53 31 32 32 64 72 89 40 32 32 42 55 40 72 76 92 85 60 72 60 43 36 28 25 23 23 18
99 94 99 99 99 98 95 91 66 82 92 78 50 54 40 50 57 53 62 46 43 48 48 96 89 63 50 48 64 77 59 61 99 77 69 84 61 32 40 32 32 26 24 22 21
98 99 99 100 100 94 90 84 69 78 99 78 50 50 47 39 60 63 60 53 37 46 59 62 98 93 75 45 50 72 97 98 94 85 83 85 68 34 41 25 26 26 25 23 24
98 99 99 99 97 94 89 80 68 81 79 88 53 43 38 44 72 65 56 38 41 54 68 58 86 91 64 71 61 91 77 79 96 94 89 81 58 43 46 34 31 28 27 26 25
99 99 99 99 99 96 86 88 85 67 84 85 73 45 49 54 44 72 63 42 37 43 39 60 85 80 81 74 93 93 78 76 97 93 92 73 59 52 71 55 34 30 27 28 26
98 98 88 97 94 96 92 97 92 94 84 98 92 78 60 75 62 63 51 41 41 41 52 77 91 65 60 44 44 54 71 84 96 84 95 79 76 40 50 52 59 31 28 29 29
98 99 100 91 81 94 92 91 92 96 88 82 90 52 51 67 66 66 50 51 61 50 79 82 92 68 66 39 27 40 39 51 82 78 78 78 81 49 44 55 41 31 28 30 27
100 99 100 99 100 98 88 77 82 91 91 60 76 68 53 45 39 38 39 42 47 69 80 83 85 86 77 36 42 58 54 51 39 56 69 80 67 60 64 55 55 32 28 28 28

GFSSW_850_rhum_141.txt.gz
RH
77 77 76 79 83 88 88 87 86 80 74 79 93 94 92 84 47 37 31 25 66 86 83 65 54 89 87 90 76 62 78 73 55 42 33 23 26 21 21 18 15 13 17 21 47
79 78 79 78 76 80 93 96 93 92 83 86 96 88 83 80 45 32 38 65 86 92 88 77 70 70 78 84 77 64 81 69 43 36 32 25 24 25 23 20 18 16 23 27 47
91 91 92 87 87 89 90 94 95 97 94 87 99 89 73 56 52 63 67 77 72 74 81 85 67 67 76 82 76 62 78 56 47 42 35 32 29 29 28 26 18 27 39 40 54
99 98 96 93 97 98 98 95 91 100 99 94 99 95 80 61 57 62 84 72 57 64 78 82 91 76 71 77 72 84 56 54 52 46 42 42 39 39 35 25 18 22 28 44 54
93 96 96 97 99 99 100 100 97 96 100 100 99 95 90 75 71 45 67 48 44 50 68 64 70 68 69 62 63 77 64 51 48 48 44 42 43 41 36 30 26 23 31 43 46
98 99 98 99 100 100 100 100 100 100 100 100 100 94 88 96 54 41 44 47 51 55 54 57 62 65 65 77 71 54 51 57 60 59 44 44 41 37 33 29 27 26 30 37 47
98 98 98 98 96 96 98 99 100 100 100 100 99 91 99 70 62 50 47 48 49 51 51 48 49 54 63 77 69 66 74 53 55 52 59 44 46 42 33 30 27 27 27 35 43
95 94 94 95 99 94 95 100 99 100 100 100 92 91 98 67 56 57 51 51 53 51 54 44 46 50 58 62 66 75 68 84 52 48 46 52 61 37 32 31 29 28 27 34 43
100 95 99 100 100 94 100 96 96 100 100 100 96 99 96 62 60 49 52 52 57 51 52 51 49 46 56 82 87 73 90 77 57 43 47 59 66 41 33 32 30 28 28 36 44
95 90 100 99 97 92 95 98 99 100 100 93 99 99 81 63 52 52 45 49 50 53 47 43 49 68 72 84 92 82 84 70 74 56 51 51 55 44 34 33 32 30 28 27 46
84 74 86 86 92 92 100 100 98 96 100 70 81 78 58 65 56 49 41 39 30 28 57 42 64 80 69 68 64 64 75 67 55 50 52 54 49 40 35 35 34 32 29 27 26
68 82 84 87 92 83 95 100 96 85 82 84 68 79 73 70 47 42 35 32 38 37 32 46 52 43 51 49 60 72 78 82 64 52 57 54 54 40 37 35 33 31 29 27 26
77 87 88 98 98 100 99 98 99 96 96 89 78 70 63 38 38 35 40 44 40 33 31 38 34 24 30 39 52 50 66 66 69 54 53 65 66 52 38 34 30 30 29 26 24
76 89 89 100 99 99 99 100 97 89 98 66 34 34 45 46 46 42 43 45 47 53 41 48 36 33 36 36 28 37 32 38 43 54 87 57 78 61 50 43 35 30 30 28 24
67 92 87 99 99 99 99 100 98 81 96 45 41 42 47 49 39 26 31 44 50 50 35 45 38 38 42 37 31 43 38 31 31 42 59 54 82 69 52 54 44 34 32 28 26
60 100 99 99 100 100 99 98 86 94 94 41 52 55 47 36 28 21 23 35 31 39 32 34 29 35 36 32 33 32 38 45 56 51 76 71 64 54 47 49 46 36 31 29 26
55 100 100 100 98 100 99 89 97 93 60 77 49 46 36 28 25 24 31 38 40 57 54 38 31 25 24 33 29 42 58 90 94 93 79 47 64 55 46 34 35 36 33 28 26
97 95 99 100 99 98 97 97 95 89 82 79 75 51 42 29 34 42 40 43 36 36 69 69 53 34 32 40 49 50 62 85 90 91 57 41 68 50 32 32 36 34 30 29 27
94 98 98 100 100 100 98 97 94 86 86 92 84 51 43 41 50 44 45 46 37 47 62 85 72 42 41 36 36 66 79 55 75 64 74 77 58 38 29 35 41 36 32 33 25
100 97 99 98 99 99 98 86 88 82 87 91 90 54 63 46 54 71 60 42 43 57 69 87 93 50 43 38 40 46 50 81 90 93 90 62 69 69 52 39 34 41 35 32 28
95 94 99 100 100 98 97 92 78 84 83 93 89 63 54 61 66 66 64 50 47 53 57 90 90 64 53 58 58 80 80 82 92 84 89 68 49 26 28 30 37 35 28 24 26
94 96 100 100 100 99 96 83 68 74 86 95 92 74 67 52 71 71 70 60 45 56 66 71 94 98 74 50 42 54 97 97 95 89 97 83 51 22 48 48 65 62 46 28 23
93 97 100 100 99 99 93 88 75 78 79 88 92 72 45 51 66 69 63 45 43 81 77 64 90 100 71 59 39 69 58 76 89 95 95 87 76 37 34 41 54 64 52 48 28
99 98 99 99 99 98 92 93 90 71 77 88 85 69 65 63 54 73 69 53 46 50 43 62 93 87 91 70 76 81 69 58 77 94 94 90 73 56 53 63 57 53 46 59 58
100 99 95 98 97 96 94 98 94 95 89 95 93 85 80 87 69 65 54 54 51 55 62 74 89 79 70 63 60 64 65 62 87 75 90 70 77 57 84 72 66 64 73 64 54
100 100 100 99 88 96 95 96 88 88 96 92 95 67 75 94 64 73 62 61 63 58 81 89 88 73 77 53 48 51 43 40 57 56 69 70 68 84 77 75 80 88 88 78 41
97 100 100 99 100 99 95 85 87 92 95 65 75 78 88 77 53 49 47 47 53 72 81 89 96 93 83 54 56 60 46 76 78 89 80 83 94 81 81 84 95 91 84 80 64

GFSSW_850_rhum_144.txt.gz
RH
80 81 85 85 84 83 79 82 92 98 99 99 98 89 81 76 68 62 55 41 43 71 92 95 60 60 72 86 90 73 81 81 70 50 39 27 29 24 23 24 22 15 17 17 56
87 93 94 92 88 84 84 91 96 100 100 100 100 99 94 85 73 62 50 55 72 85 87 85 85 67 76 83 87 94 85 71 52 49 42 32 31 29 27 28 28 20 19 27 52
98 94 88 93 96 94 94 93 93 96 100 100 100 100 98 88 75 52 57 64 73 72 74 80 86 84 70 74 85 78 86 54 54 48 44 41 36 32 32 37 30 24 22 47 57
98 92 93 95 93 95 96 97 97 96 99 100 100 100 98 89 80 55 68 78 80 54 59 77 84 92 78 78 68 92 69 64 58 55 51 50 44 42 38 36 32 33 33 43 63
92 94 95 94 94 96 96 94 91 94 92 97 100 100 100 90 75 63 64 78 75 50 52 67 70 85 84 66 60 70 67 69 66 59 56 54 54 51 46 42 38 36 35 57 62
94 94 93 94 97 90 94 98 92 91 93 98 100 100 100 97 69 60 56 42 44 52 55 54 60 64 60 67 64 58 59 58 60 66 55 55 52 48 44 41 38 34 30 55 58
92 93 98 100 97 91 100 96 96 97 100 96 100 100 100 79 72 73 75 67 52 50 53 54 54 52 57 69 67 69 83 70 64 55 63 61 72 66 46 43 39 34 31 43 52
93 95 94 95 89 91 97 98 92 91 88 100 100 100 98 88 76 63 52 53 51 50 50 49 46 50 51 54 58 72 80 91 57 55 51 59 79 51 50 42 38 34 32 31 46
82 64 68 69 84 86 90 89 80 95 96 100 100 98 95 76 61 53 53 53 53 58 51 51 53 55 56 68 82 72 94 86 70 44 47 58 67 48 45 41 38 36 34 32 30
49 57 72 93 89 89 95 83 99 100 100 100 99 96 83 73 64 54 50 37 42 54 46 46 53 69 68 78 87 70 73 64 68 62 60 54 59 48 46 44 39 35 33 32 30
44 57 80 94 90 82 98 100 98 99 99 85 89 81 70 85 88 73 50 46 45 32 35 45 64 81 68 63 60 66 76 97 88 62 62 78 81 59 43 46 46 38 35 34 31
41 46 80 90 88 91 88 99 98 92 90 87 95 93 72 80 95 63 41 42 36 46 34 42 65 49 45 56 65 68 77 78 57 48 58 74 70 62 48 44 37 39 37 34 33
37 41 87 93 97 90 83 86 97 100 96 89 77 82 80 67 77 40 37 35 42 42 38 45 39 29 34 39 54 63 73 69 69 55 49 57 67 51 48 43 39 36 35 34 29
32 44 91 96 98 98 99 95 98 91 99 71 51 44 46 44 45 40 43 45 48 50 45 38 29 34 36 40 36 52 32 34 44 54 93 53 72 54 41 42 41 38 35 35 32
43 62 88 98 99 100 99 98 86 85 95 50 44 41 47 52 46 30 39 45 50 46 41 52 38 34 42 38 35 45 39 40 42 55 60 64 87 64 54 55 47 43 39 34 33
62 86 97 92 98 98 98 85 83 84 90 51 52 65 64 48 39 26 33 42 39 49 47 47 27 34 37 34 34 32 42 51 52 57 85 73 67 64 50 42 38 42 39 36 32
76 81 84 97 99 97 95 85 89 88 67 68 53 49 54 42 28 25 34 37 40 56 57 44 37 29 29 35 37 42 67 94 91 100 74 44 63 53 43 30 30 33 33 36 35
67 81 80 95 98 98 92 87 91 76 78 76 81 75 70 36 37 41 39 43 36 40 76 68 51 34 41 41 49 46 63 94 98 93 88 59 65 46 32 28 27 32 30 31 31
84 91 88 100 99 100 84 96 84 80 80 87 80 84 49 46 53 47 48 50 43 59 59 82 66 47 40 40 41 58 87 62 79 77 86 67 41 28 20 25 38 31 30 34 33
88 85 98 99 99 98 93 88 86 82 86 82 91 88 84 48 54 71 60 45 54 57 69 86 78 51 48 37 42 49 63 86 95 97 88 77 58 43 38 43 36 31 38 34 34
100 87 99 98 99 95 98 90 83 84 80 88 88 92 62 67 67 70 61 49 47 58 64 91 80 65 49 51 63 76 78 81 96 96 91 83 49 28 29 23 41 42 52 50 47
99 100 99 96 99 99 95 82 71 76 89 87 92 81 80 57 73 76 66 52 50 52 65 71 94 99 75 53 50 44 88 90 95 88 89 89 53 48 51 61 65 58 60 53 48
99 99 100 100 99 97 94 91 75 81 81 83 83 77 69 62 78 68 56 46 49 66 76 69 89 99 70 62 46 70 50 80 89 94 89 96 77 49 43 48 69 71 61 65 65
100 99 99 99 99 94 90 92 91 74 76 74 84 77 86 78 59 70 68 57 56 64 55 61 88 79 80 69 78 84 76 64 81 94 75 77 73 42 44 81 76 80 75 76 67
98 98 96 98 97 97 93 97 94 96 91 82 95 89 88 97 80 73 59 61 51 49 61 78 96 94 85 71 75 76 72 68 78 73 80 64 51 41 82 79 76 97 83 79 72
95 95 100 98 99 99 96 96 90 80 98 94 96 73 85 94 68 74 66 69 68 65 85 92 87 78 82 65 56 55 50 48 51 74 84 65 57 71 69 68 74 98 95 84 78
94 91 99 80 96 98 94 86 88 97 96 72 79 83 81 80 66 65 57 56 53 70 85 91 94 96 81 61 60 70 58 73 82 86 89 90 90 72 73 66 87 98 99 99 94

GFSSW_850_rhum_150.txt.gz
RH
98 97 94 91 91 86 88 90 92 94 95 97 99 98 99 98 94 90 78 73 67 52 64 69 75 84 91 95 83 93 93 77 72 70 62 40 37 30 29 29 27 24 24 26 26
96 94 92 92 90 86 91 93 96 95 93 92 94 96 97 100 100 97 74 65 50 62 66 77 76 79 84 88 82 92 87 68 52 53 58 49 45 40 33 33 32 28 27 27 29
93 95 92 91 93 92 98 98 98 100 98 92 91 97 98 100 100 90 52 58 66 73 75 73 77 69 80 84 84 88 84 59 56 52 50 57 53 44 43 45 37 33 30 33 47
97 98 96 94 93 94 94 84 84 83 81 80 90 99 99 98 94 64 72 86 92 82 94 72 56 84 79 69 76 91 69 70 67 61 58 58 55 54 51 48 40 36 34 40 57
64 62 66 64 61 56 49 51 58 60 62 76 86 99 100 100 92 86 85 88 92 93 86 80 74 75 85 76 73 81 74 64 60 62 66 59 66 73 62 52 48 44 45 43 47
51 46 44 42 41 42 52 65 78 72 67 70 79 97 100 99 95 94 90 84 71 76 92 83 65 70 91 87 87 80 73 66 63 64 63 67 62 70 62 63 62 57 54 50 45
44 41 38 37 38 40 59 90 85 75 63 63 68 99 99 91 97 96 92 91 84 68 62 76 75 94 87 76 63 82 94 80 66 60 62 58 65 67 58 60 62 55 54 51 42
32 28 24 28 35 45 82 89 83 76 71 73 76 91 96 93 94 79 62 55 53 57 64 67 82 80 84 82 72 89 96 99 60 52 55 63 86 49 43 46 58 59 55 51 46
22 19 23 29 41 85 91 85 82 90 83 83 97 99 92 85 69 65 62 62 63 65 75 80 74 72 63 96 97 84 94 88 66 43 77 87 81 56 56 52 57 62 60 56 48
19 19 22 30 63 97 88 80 97 95 90 82 82 84 73 76 75 71 65 77 57 49 60 91 99 99 96 99 90 85 93 81 97 67 59 66 82 79 67 71 79 65 53 54 52
24 23 27 36 87 82 82 91 87 91 77 85 90 94 84 84 74 62 71 84 77 50 83 79 87 85 84 94 97 99 92 93 66 53 64 78 74 65 52 70 67 72 59 52 48
31 33 40 48 75 83 85 98 99 98 94 84 56 62 60 53 68 45 41 72 56 73 61 72 86 62 53 49 84 98 95 89 78 72 57 56 62 49 49 58 58 52 62 58 49
39 45 55 63 81 80 86 94 100 94 97 77 44 44 50 58 60 47 40 44 45 52 55 58 42 34 37 45 65 71 76 67 62 44 45 60 63 51 45 48 44 44 46 47 51
46 46 63 62 75 80 90 100 95 86 90 56 41 44 51 49 53 47 43 43 51 58 50 46 34 34 40 42 39 55 37 39 38 52 86 65 92 51 42 39 40 45 40 41 40
51 54 67 71 80 83 92 90 88 85 55 46 46 44 48 52 51 34 38 46 58 55 41 47 44 42 43 37 37 48 44 40 39 50 62 63 96 74 52 48 40 33 33 34 33
55 59 65 71 78 78 86 86 81 76 66 59 51 54 60 56 54 45 38 43 47 53 54 55 40 38 40 34 37 37 42 54 66 71 94 64 65 71 42 36 38 33 32 31 29
65 62 61 67 74 78 81 83 82 72 56 69 66 69 75 73 50 35 35 39 44 56 59 46 39 30 36 37 38 47 62 82 81 97 79 60 52 65 39 35 34 30 27 24 27
84 72 72 70 74 76 75 79 66 62 73 75 80 78 82 58 45 49 45 48 38 46 82 76 56 45 41 42 47 49 57 79 79 90 68 49 52 36 40 26 45 40 65 64 41
73 79 86 79 74 71 74 87 75 68 79 83 72 79 67 44 62 55 48 53 47 52 68 90 69 48 42 42 41 43 80 60 84 80 95 79 60 41 44 48 55 61 76 81 80
82 87 92 80 76 71 86 82 76 80 84 78 86 75 96 72 58 68 58 45 48 59 66 72 78 50 52 42 46 47 54 79 93 100 100 69 61 77 71 66 63 66 62 81 80
98 92 90 80 81 75 90 94 76 80 77 85 84 89 92 76 73 69 67 48 47 64 69 83 78 62 52 52 57 67 78 84 87 98 96 98 68 72 68 48 82 70 60 74 86
93 96 98 93 91 96 94 88 79 79 87 88 86 93 88 71 81 79 72 57 45 56 61 70 88 100 73 52 52 57 76 83 90 77 96 88 66 30 38 38 64 63 61 82 88
87 94 98 99 97 94 84 94 86 80 89 89 80 79 79 86 94 84 68 47 49 60 77 78 87 93 67 67 51 68 84 88 87 94 97 97 66 42 36 68 61 64 72 85 87
91 98 98 99 99 93 83 88 94 75 81 83 87 80 92 98 84 91 68 57 58 65 54 64 85 75 82 61 77 77 86 78 81 100 84 73 57 41 56 80 65 60 83 82 87
90 89 93 96 97 91 92 95 98 96 86 87 97 90 89 97 96 94 78 70 58 51 72 88 98 93 82 70 76 78 85 90 90 79 94 59 55 45 84 86 63 86 78 75 84
85 95 100 97 90 100 96 97 97 87 90 96 98 77 90 96 78 91 94 86 81 66 82 96 96 91 92 75 74 79 70 75 80 78 78 67 67 52 78 66 76 88 80 78 80
97 92 92 84 97 98 92 87 85 88 76 72 81 95 97 86 75 70 76 98 92 77 90 96 96 96 92 63 63 77 57 55 74 93 95 90 84 72 78 71 64 89 78 80 87